Cloud_Cover
0 0 0 1 0 0 0 0 0 0 0 0 0 0 5 68 56 100 100 100 93 69 69 76 78 22 5 2 5 5 5 9 5 0 2 0 0 0 0 0 0 0 2 0 1
0 0 2 0 0 0 0 0 0 0 0 0 0 0 4 66 57 100 100 100 100 96 77 89 76 32 7 5 2 5 3 20 91 12 5 5 3 3 0 0 5 5 5 5 2
40 0 5 1 0 0 0 0 0 0 0 0 0 0 4 68 100 58 100 100 100 100 57 97 54 56 89 5 4 0 3 0 7 62 6 5 42 5 5 5 5 5 0 0 4
5 8 5 0 0 0 0 0 0 0 0 0 0 0 0 25 95 36 96 92 100 100 68 83 76 84 44 21 5 4 4 1 0 1 2 0 5 100 13 3 0 0 0 0 5
67 4 5 0 0 0 0 0 0 0 0 0 0 0 0 8 87 57 99 100 100 100 70 100 78 95 37 20 5 5 5 5 5 5 5 5 5 5 5 4 2 4 3 0 0
5 5 0 0 0 0 0 0 0 0 0 0 0 0 0 6 51 100 45 100 100 100 100 100 75 99 5 6 5 14 5 5 5 5 5 7 5 5 5 5 5 5 5 5 4
5 5 0 0 0 0 0 0 0 0 0 0 0 0 0 0 5 31 86 100 100 100 100 100 100 74 5 5 13 62 38 5 5 19 42 37 6 5 5 5 5 5 5 5 5
0 0 0 0 0 0 0 0 0 0 0 0 0 1 0 30 0 11 73 100 100 100 100 100 100 61 39 5 5 21 5 5 5 6 25 5 5 5 5 5 5 5 5 5 5
100 66 75 27 0 0 0 0 0 0 0 0 2 4 4 26 5 6 42 100 100 100 100 100 100 100 100 100 74 30 95 16 5 5 21 5 6 5 5 5 5 5 5 5 5
100 100 100 37 0 0 0 0 0 0 0 3 5 4 17 55 74 82 59 100 100 100 100 100 100 100 100 100 100 100 97 98 97 78 83 8 5 5 5 5 5 5 5 5 5
100 100 56 4 4 0 0 0 0 0 0 0 2 44 86 65 54 95 45 100 100 100 100 100 100 100 100 100 100 100 100 100 100 100 100 57 96 73 98 100 37 43 53 12 70
2 5 7 48 8 0 0 0 0 0 2 0 5 99 71 76 5 14 70 100 100 100 100 100 100 100 100 100 100 100 100 100 100 100 100 100 100 100 100 100 81 100 98 100 100
19 4 0 0 0 0 0 0 0 0 4 5 20 58 67 5 5 5 5 89 100 100 100 100 100 100 100 100 100 100 100 100 100 100 100 100 100 100 100 100 100 100 100 83 92
2 0 1 2 0 0 1 0 0 2 5 52 6 5 1 1 3 5 5 22 83 95 100 100 100 100 100 100 100 100 100 100 100 85 98 96 98 100 100 83 79 49 84 38 5
5 5 2 4 18 7 0 0 0 0 5 4 2 0 0 0 0 0 5 5 5 7 35 100 100 100 100 100 100 100 66 5 10 84 92 31 18 100 99 12 5 5 5 5 5
5 5 5 4 2 0 0 0 0 0 0 0 0 0 0 0 0 0 2 5 5 5 6 45 100 100 100 92 47 73 92 92 46 6 37 16 5 87 100 56 5 5 5 5 5
0 0 0 0 0 0 0 0 0 0 0 0 0 0 0 0 0 0 0 4 5 5 5 5 45 88 100 100 99 24 5 5 23 26 5 8 29 61 27 5 5 5 5 5 2
0 5 5 0 0 1 3 1 0 0 0 0 0 0 0 0 0 0 0 0 0 5 5 26 78 53 59 50 70 62 46 12 35 59 50 10 5 31 23 5 5 5 5 2 0
5 5 5 38 94 99 100 98 24 5 1 0 0 0 0 0 0 0 0 0 0 0 2 5 16 17 36 20 40 12 5 5 5 5 42 28 5 5 4 4 5 3 0 0 0
5 5 5 5 18 70 43 2 1 0 0 0 0 0 0 0 0 0 0 0 0 1 1 5 5 5 5 5 7 12 5 5 5 4 2 0 0 0 0 0 0 0 0 0 0
6 5 5 5 10 5 2 0 0 0 0 0 4 2 0 0 0 0 0 0 0 0 0 0 2 5 5 5 4 1 2 0 0 0 0 0 0 0 0 0 0 0 0 0 1
5 5 5 5 1 0 0 0 0 0 0 2 3 0 0 0 0 0 0 0 0 0 0 0 0 0 0 0 0 0 0 0 0 0 0 0 0 0 0 0 0 2 5 5 5
5 3 4 5 5 1 5 0 0 0 0 0 0 0 0 0 2 0 0 0 0 0 0 0 0 0 0 0 0 0 0 0 0 0 0 0 0 0 0 0 4 3 0 0 0
34 14 5 5 1 0 0 0 0 0 0 0 0 0 0 0 0 0 0 0 0 0 0 0 0 0 0 0 0 0 0 0 1 4 4 64 5 5 0 0 0 0 0 0 0
5 5 12 58 15 14 4 0 0 0 0 0 0 0 0 0 0 0 0 0 0 0 0 0 0 0 0 1 4 31 33 5 5 5 3 5 2 0 0 0 0 0 0 0 0
9 5 5 5 5 5 18 71 59 50 22 8 4 5 1 3 5 7 27 43 42 57 93 85 97 58 39 38 41 30 5 5 1 0 0 0 0 0 0 0 0 0 0 0 0
95 38 6 5 5 5 5 5 5 5 5 5 11 18 59 60 65 66 51 34 24 20 8 5 5 5 5 5 0 0 0 0 0 0 0 1 2 5 5 2 0 1 2 5 0